Location: Diebersbach
(48.5163°N, 8.0558°E)
Time: 09:20:49
(UTC+00:00)

Cosmos 1782 - Pass Details

Date: 20 June 2021
Orbit: 537 x 550 km, 82.5° (Epoch: 01 August)

Event Time Altitude Azimuth Distance (km) Brightness Sun altitude
Rises 02:09:38 0° 348° (NNW) 2,720 7.0 -9.6°
Reaches altitude 10° 02:11:48 10° 345° (NNW) 1,824 6.0 -9.4°
Maximum altitude 02:15:47 67° 263° (W) 598 2.8 -9.0°
Drops below altitude 10° 02:19:45 10° 181° (S) 1,816 5.0 -8.6°
Enters shadow 02:20:47 - 180° (S) 2,242 5.5 -8.5°
